Other Public Products
Issued by NWS Charleston, SC

Current Version | Previous Version | Graphics & Text | Print | Product List | Glossary On
Versions: 1 2 3 4 5 6 7 8 9 10 11 12 13 14 15 16 17 18 19 20 21 22 23 24 25 26 27 28 29 30 31 32 33 34 35 36 37 38 39 40 41 42 43 44 45 46 47 48 49 50
000 FPUS82 KCHS 270212 OPUCHS TEST...KCHS/KSAV Gateway Observations...TEST National Weather Service Charleston SC 1000 PM EDT MON JUN 26 2017 NOTE: "fair" indicates few or no clouds below 12,000 feet with no significant weather and/or obstructions to visibility. SCZ050-WAZ558-NCZ071-TXZ119-213-PAZ071-DCZ001-FLZ074-172-MI076- NYZ176-178-MAZ016-IL014-TNZ027-NJZ106-GAZ044-MD014-270300- ...Gateway Observations for Charleston International... CITY SKY/WX TMP DP RH WIND PRES REMARKS Chas Airport PTCLDY 77 66 68 CALM 30.04R Seattle MOSUNNY 69 54 58 S7 29.95S Charlotte MOCLDY 74 56 53 SW3 30.06R Dallas DFW CLOUDY 82 70 66 SE7 30.01R Dallas Love CLOUDY 83 69 62 SE8 30.01S Philladelphia CLEAR 73 52 47 S5 30.00R Wash National MOCLDY 76 58 53 S13 29.99R Baltimore MOCLDY 73 56 54 SE3 29.98S Miami PTCLDY 84 74 71 SE6 30.03R HX 91 Detroit LGT RAIN 61 47 59 NW10G18 29.98R Newark PTCLDY 74 46 36 SW9 29.97R Laguardia CLEAR 72 61 68 S8 29.97R J F K PTCLDY 68 64 87 S10 30.00R Boston Logan MOCLDY 70 52 52 NE6 29.98R Ft. Lauderdale PTCLDY 83 74 74 S7 30.03R Chicago O`Hare PTCLDY 63 43 48 NW13 30.05R Chicago Midway PTCLDY 64 43 46 NW15G24 30.06R Houston Bush CLOUDY 78 72 81 SE7 30.00S Houston Hobby LGT RAIN 80 74 81 NE6 29.99F Nashville MOCLDY 72 51 47 N7 30.10S Atlanta PTCLDY 77 57 50 N6 30.08R $$ GAZ044-118-TXZ119-213-NCZ071-DCZ001-MDZ014-506-PAZ021-071-NJZ106- NYZ176-178-MAZ106-OHZ011-021-055-MIZ076-KYZ091-ILZ014-INZ047- MNZ060-ONZ431-270300- ...Gateway Observations for Savannah International... CITY SKY/WX TMP DP RH WIND PRES REMARKS Savannah Arpt MOCLDY 79 72 79 E5 30.04R Atlanta PTCLDY 77 57 50 N6 30.08R Charlotte MOCLDY 74 56 53 SW3 30.06R Dallas DFW CLOUDY 82 70 66 SE7 30.01R Houston Bush CLOUDY 78 72 81 SE7 30.00S Wash National MOCLDY 76 58 53 S13 29.99R Wash Dulles MOCLDY 74 51 44 S5 29.99R Baltimore MOCLDY 73 56 54 SE3 29.98S Philadelphia CLEAR 73 52 47 S5 30.00R Newark PTCLDY 74 46 36 SW9 29.97R Laguardia CLEAR 72 61 68 S8 29.97R J F K PTCLDY 68 64 87 S10 30.00R Boston MOCLDY 70 52 52 NE6 29.98R Pittsburg CLOUDY 64 50 60 SW6 30.02S Akron PTCLDY 60 49 66 SW6 30.01S Cleveland LGT RAIN 57 52 83 SW7 30.04R Cincinnati CLOUDY 66 50 56 W7 30.06S Columbus CLOUDY 59 53 82 S5 30.03F Detroit LGT RAIN 61 47 59 NW10G18 29.98R Chicago O`Hare PTCLDY 63 43 48 NW13 30.05R Minneapolis CLEAR 67 42 40 NW5 30.09F Indianapolis MOCLDY 56 52 86 SW5 30.06F Toronto Canada PTCLDY 59 50 72 SW3 29.92S $$

USA.gov is the U.S. government's official web portal to all federal, state and local government web resources and services.